Change the Weather History Date:

Saturday, November 12, 2011

  Actual Average (KDLZ) Record (KDLZ)
Temperature  
Mean Temperature 47 °F -  
Max Temperature 60 °F 48 °F 72 °F (1945)
Min Temperature 34 °F 32 °F 19 °F (1950)
Degree Days  
Heating Degree Days 18    
Moisture  
Dew Point 30 °F    
Average Humidity 49    
Maximum Humidity 69    
Minimum Humidity 33    
Precipitation  
Precipitation 0.00 in - - ()
Sea Level Pressure  
Sea Level Pressure 29.97 in    
Wind  
Wind Speed 12 mph (SW)    
Max Wind Speed 21 mph    
Max Gust Speed 28 mph    
Visibility 10 miles    
Events      
Averages and records for this station are not official NWS values.
T = Trace of Precipitation, MM = Missing Value Source: NWS Daily Summary

Daily Weather History Graph

Daily Weather History Graph

Search for Another Location

Airport or City:

Trip Planner

Search our weather history database for the weather conditions in past years. The results will help you decide how hot, cold, wet, or windy it might be!

Date:

Astronomy

Nov. 12, 2011 Rise Set
Actual Time 7:15 AM EST 5:19 PM EST
Civil Twilight 6:46 AM EST 5:48 PM EST
Nautical Twilight 6:13 AM EST 6:20 PM EST
Astronomical Twilight 5:41 AM EST 6:52 PM EST
Moon 6:34 PM EST (11/12) 8:56 AM EST (11/12)
Length of Visible Light 11h 01m
Length of Day
10h 04m
Full, 97% of the Moon is Illuminated
Nov 12
Full
Nov 18
Last Quarter
Nov 25
New
Dec 2
First Quarter
Dec 10
Full

Hourly Weather History & Observations

Time (EST) Temp. Windchill Dew Point Humidity Pressure Visibility Wind Dir Wind Speed Gust Speed Precip Events Conditions
12:13 AM 34.7 °F 28.1 °F 25.3 °F 69% 29.93 in 10.0 mi SSW 8.1 mph - N/A   Clear
12:34 AM 35.4 °F 27.8 °F 25.2 °F 66% 29.93 in 10.0 mi SSW 10.4 mph - N/A   Clear
12:54 AM 35.6 °F 28.0 °F 24.8 °F 65% 29.93 in 10.0 mi SSW 10.4 mph - N/A   Clear
1:13 AM 35.2 °F 27.6 °F 24.8 °F 66% 29.92 in 10.0 mi SSW 10.4 mph - N/A   Clear
1:33 AM 34.7 °F 26.9 °F 25.2 °F 68% 29.92 in 10.0 mi SSW 10.4 mph - N/A   Clear
1:54 AM 34.7 °F 27.5 °F 25.3 °F 69% 29.92 in 10.0 mi SSW 9.2 mph - N/A   Clear
2:13 AM 34.9 °F 27.7 °F 25.5 °F 69% 29.92 in 10.0 mi SSW 9.2 mph - N/A   Clear
2:33 AM 35.8 °F 28.8 °F 25.7 °F 67% 29.93 in 10.0 mi SSW 9.2 mph - N/A   Clear
2:54 AM 36.0 °F 28.5 °F 26.2 °F 68% 29.93 in 10.0 mi SSW 10.4 mph - N/A   Clear
3:13 AM 37.4 °F 30.8 °F 26.6 °F 65% 29.93 in 10.0 mi SSW 9.2 mph - N/A   Clear
3:33 AM 37.6 °F 31.6 °F 27.1 °F 66% 29.93 in 10.0 mi SSW 8.1 mph - N/A   Clear
3:54 AM 37.0 °F 30.4 °F 27.3 °F 68% 29.93 in 10.0 mi SW 9.2 mph - N/A   Clear
4:13 AM 37.4 °F 32.1 °F 27.5 °F 67% 29.93 in 10.0 mi SW 6.9 mph - N/A   Clear
4:33 AM 41.2 °F 35.5 °F 28.4 °F 60% 29.93 in 10.0 mi WSW 9.2 mph - N/A   Clear
4:54 AM 42.4 °F 35.3 °F 28.4 °F 58% 29.93 in 10.0 mi WSW 13.8 mph 19.6 mph N/A   Clear
5:13 AM 42.3 °F 35.9 °F 28.4 °F 58% 29.94 in 10.0 mi WSW 11.5 mph 17.3 mph N/A   Clear
5:33 AM 41.9 °F 35.4 °F 28.4 °F 59% 29.94 in 10.0 mi SW 11.5 mph - N/A   Clear
5:53 AM 41.0 °F 34.7 °F 28.8 °F 62% 29.95 in 10.0 mi SW 10.4 mph - N/A   Clear
6:13 AM 40.3 °F 33.9 °F 28.9 °F 64% 29.95 in 10.0 mi SW 10.4 mph - N/A   Clear
6:34 AM 40.8 °F 33.7 °F 29.1 °F 63% 29.96 in 10.0 mi SW 12.7 mph - N/A   Clear
7:13 AM 40.8 °F 34.1 °F 29.5 °F 64% 29.97 in 10.0 mi WSW 11.5 mph - N/A   Clear
7:34 AM 41.9 °F 34.6 °F 29.8 °F 62% 29.97 in 10.0 mi SW 13.8 mph 18.4 mph N/A   Clear
7:53 AM 43.0 °F 35.7 °F 30.2 °F 61% 29.98 in 10.0 mi WSW 15.0 mph - N/A   Clear
8:13 AM 44.6 °F 37.8 °F 30.2 °F 57% 29.99 in 10.0 mi WSW 15.0 mph 23.0 mph N/A   Clear
8:34 AM 45.9 °F 39.4 °F 30.7 °F 56% 29.99 in 10.0 mi WSW 15.0 mph - N/A   Clear
8:53 AM 47.3 °F - 30.9 °F 53% 30.00 in 10.0 mi WSW 17.3 mph 24.2 mph N/A   Clear
9:13 AM 48.7 °F - 31.3 °F 51% 30.00 in 10.0 mi WSW 17.3 mph 24.2 mph N/A   Clear
10:13 AM 51.8 °F - 30.9 °F 45% 30.02 in 10.0 mi WSW 20.7 mph 26.5 mph N/A   Clear
10:34 AM 53.2 °F - 31.1 °F 43% 30.02 in 10.0 mi WSW 20.7 mph 25.3 mph N/A   Clear
10:53 AM 54.5 °F - 30.9 °F 41% 30.02 in 10.0 mi WSW 20.7 mph 25.3 mph N/A   Clear
11:13 AM 55.6 °F - 31.3 °F 40% 30.02 in 10.0 mi WSW 16.1 mph 24.2 mph N/A   Clear
11:34 AM 56.3 °F - 30.7 °F 38% 30.02 in 10.0 mi SW 18.4 mph 24.2 mph N/A   Clear
11:53 AM 57.0 °F - 30.4 °F 36% 30.02 in 10.0 mi WSW 20.7 mph - N/A   Clear
12:13 PM 57.7 °F - 30.9 °F 36% 30.01 in 10.0 mi SW 17.3 mph 23.0 mph N/A   Clear
12:34 PM 58.3 °F - 30.6 °F 35% 30.00 in 10.0 mi SW 18.4 mph 21.9 mph N/A   Clear
12:53 PM 59.0 °F - 30.6 °F 34% 30.00 in 10.0 mi SW 13.8 mph - N/A   Clear
1:13 PM 59.9 °F - 30.9 °F 33% 29.99 in 10.0 mi SW 18.4 mph 25.3 mph N/A   Clear
1:34 PM 59.9 °F - 30.7 °F 33% 29.99 in 10.0 mi SW 18.4 mph 24.2 mph N/A   Clear
1:53 PM 59.2 °F - 30.7 °F 34% 29.99 in 10.0 mi SW 17.3 mph 25.3 mph N/A   Clear
2:13 PM 59.9 °F - 30.9 °F 33% 30.00 in 10.0 mi SW 16.1 mph 23.0 mph N/A   Clear
2:34 PM 60.3 °F - 30.9 °F 33% 29.99 in 10.0 mi SW 20.7 mph 26.5 mph N/A   Clear
2:53 PM 60.3 °F - 30.9 °F 33% 29.99 in 10.0 mi SW 18.4 mph 24.2 mph N/A   Clear
3:13 PM 59.9 °F - 30.6 °F 33% 29.99 in 10.0 mi SW 20.7 mph 27.6 mph N/A   Clear
3:34 PM 59.4 °F - 30.4 °F 33% 29.99 in 10.0 mi SW 17.3 mph 24.2 mph N/A   Clear
3:53 PM 58.6 °F - 30.2 °F 34% 29.99 in 10.0 mi SW 13.8 mph 23.0 mph N/A   Clear
4:13 PM 58.3 °F - 30.4 °F 35% 29.99 in 10.0 mi SW 15.0 mph 21.9 mph N/A   Clear
4:34 PM 57.0 °F - 30.2 °F 36% 29.99 in 10.0 mi SW 15.0 mph 20.7 mph N/A   Clear
4:53 PM 56.1 °F - 30.0 °F 37% 29.99 in 10.0 mi SSW 13.8 mph 21.9 mph N/A   Clear
5:13 PM 55.6 °F - 29.8 °F 37% 29.99 in 10.0 mi SSW 12.7 mph 17.3 mph N/A   Clear
5:34 PM 54.5 °F - 30.2 °F 39% 29.99 in 10.0 mi SSW 8.1 mph - N/A   Clear
5:54 PM 53.2 °F - 30.9 °F 43% 29.99 in 10.0 mi SSW 10.4 mph - N/A   Clear
6:13 PM 53.2 °F - 30.7 °F 42% 29.99 in 10.0 mi SSW 11.5 mph 17.3 mph N/A   Clear
6:34 PM 52.7 °F - 30.7 °F 43% 29.99 in 10.0 mi SSW 12.7 mph 16.1 mph N/A   Clear
6:53 PM 52.2 °F - 31.1 °F 45% 29.99 in 10.0 mi SSW 10.4 mph - N/A   Clear
7:13 PM 52.0 °F - 31.1 °F 45% 29.99 in 10.0 mi SSW 10.4 mph 16.1 mph N/A   Clear
7:34 PM 51.6 °F - 31.5 °F 46% 29.98 in 10.0 mi South 10.4 mph 16.1 mph N/A   Clear
7:54 PM 51.8 °F - 31.1 °F 45% 29.98 in 10.0 mi SSW 11.5 mph 18.4 mph N/A   Clear
8:34 PM 50.2 °F - 31.5 °F 49% 29.98 in 10.0 mi SSW 11.5 mph - N/A   Clear
8:53 PM 49.6 °F - 31.6 °F 50% 29.97 in 10.0 mi SSW 10.4 mph - N/A   Clear
9:13 PM 49.6 °F - 31.6 °F 50% 29.97 in 10.0 mi SSW 11.5 mph - N/A   Clear
9:34 PM 48.9 °F - 31.6 °F 51% 29.97 in 10.0 mi SSW 10.4 mph 16.1 mph N/A   Clear
9:53 PM 48.4 °F - 31.8 °F 53% 29.96 in 10.0 mi SSW 9.2 mph - N/A   Clear
10:34 PM 50.5 °F - 31.5 °F 48% 29.95 in 10.0 mi SSW 16.1 mph 19.6 mph N/A   Clear
10:53 PM 51.8 °F - 30.6 °F 44% 29.95 in 10.0 mi SSW 15.0 mph 23.0 mph N/A   Clear
11:14 PM 52.3 °F - 29.8 °F 42% 29.94 in 10.0 mi SSW 15.0 mph 23.0 mph N/A   Clear
11:34 PM 52.7 °F - 29.3 °F 41% 29.94 in 10.0 mi SSW 15.0 mph 23.0 mph N/A   Clear
11:53 PM 52.2 °F - 29.5 °F 42% 29.94 in 10.0 mi SSW 15.0 mph 21.9 mph N/A   Clear